Data supplied by UK-AIR on 2/5/2024
All Data GMT hour ending 
Status: R =Ratified P=Provisional,P*=As supplied
,,Scunthorpe Town,,,,,,,,,,,,,,,,,,,,,,,
Date,time,"PM<sub>10</sub> particulate matter (Hourly measured)",status,unit,"Nitric oxide",status,unit,"Nitrogen dioxide",status,unit,"Nitrogen oxides as nitrogen dioxide",status,unit,"Sulphur dioxide",status,unit
 
01-01-2023,01:00,,,,2.06729,R,ugm-3,7.25620,R,ugm-3,10.42600,R,ugm-3,0.34229,R,ugm-3
01-01-2023,02:00,,,,0.30148,R,ugm-3,3.75931,R,ugm-3,4.22157,R,ugm-3,0.25672,R,ugm-3
01-01-2023,03:00,,,,0.45222,R,ugm-3,2.71265,R,ugm-3,3.40604,R,ugm-3,0.25672,R,ugm-3
01-01-2023,04:00,,,,0.41992,R,ugm-3,1.89867,R,ugm-3,2.54254,R,ugm-3,0.32089,R,ugm-3
01-01-2023,05:00,,,,0.29071,R,ugm-3,1.56909,R,ugm-3,2.01484,R,ugm-3,0.25672,R,ugm-3
01-01-2023,06:00,,,,0.38762,R,ugm-3,1.32456,R,ugm-3,1.91890,R,ugm-3,0.25672,R,ugm-3
01-01-2023,07:00,,,,0.67833,R,ugm-3,2.36595,R,ugm-3,3.40604,R,ugm-3,0.25672,R,ugm-3
01-01-2023,08:00,,,,0.54912,R,ugm-3,2.56406,R,ugm-3,3.40604,R,ugm-3,0.25672,R,ugm-3
01-01-2023,09:00,,,,0.74293,R,ugm-3,2.50676,R,ugm-3,3.64590,R,ugm-3,0.25672,R,ugm-3
01-01-2023,10:00,,,,0.71063,R,ugm-3,3.08398,R,ugm-3,4.17360,R,ugm-3,0.25672,R,ugm-3
01-01-2023,11:00,,,,0.80753,R,ugm-3,3.55904,R,ugm-3,4.79724,R,ugm-3,0.25672,R,ugm-3
01-01-2023,12:00,,,,1.22745,R,ugm-3,5.40973,R,ugm-3,7.29180,R,ugm-3,0.25672,R,ugm-3
01-01-2023,13:00,,,,1.77658,R,ugm-3,4.99951,R,ugm-3,7.72356,R,ugm-3,0.25672,R,ugm-3
01-01-2023,14:00,,,,1.19515,R,ugm-3,4.40387,R,ugm-3,6.23641,R,ugm-3,0.25672,R,ugm-3
01-01-2023,15:00,,,,1.42126,R,ugm-3,6.11999,R,ugm-3,8.29922,R,ugm-3,0.25672,R,ugm-3
01-01-2023,16:00,,,,1.09825,R,ugm-3,9.87739,R,ugm-3,11.56135,R,ugm-3,0.25672,R,ugm-3
01-01-2023,17:00,,,,0.93674,R,ugm-3,7.91830,R,ugm-3,9.35462,R,ugm-3,0.25672,R,ugm-3
01-01-2023,18:00,,,,1.19515,R,ugm-3,12.70309,R,ugm-3,14.53563,R,ugm-3,0.25672,R,ugm-3
01-01-2023,19:00,,,,1.06595,R,ugm-3,12.03770,R,ugm-3,13.67213,R,ugm-3,0.25672,R,ugm-3
01-01-2023,20:00,,,,0.87214,R,ugm-3,8.44911,R,ugm-3,9.78637,R,ugm-3,0.25672,R,ugm-3
01-01-2023,21:00,,,,0.77523,R,ugm-3,8.40580,R,ugm-3,9.59448,R,ugm-3,0.25672,R,ugm-3
01-01-2023,22:00,,,,0.61373,R,ugm-3,12.34732,R,ugm-3,13.28835,R,ugm-3,0.25672,R,ugm-3
01-01-2023,23:00,,,,0.51682,R,ugm-3,6.16355,R,ugm-3,6.95600,R,ugm-3,0.25672,R,ugm-3
01-01-2023,24:00,,,,0.41992,R,ugm-3,3.76960,R,ugm-3,4.41346,R,ugm-3,0.25672,R,ugm-3
02-01-2023,01:00,,,,0.38769,R,ugm-3,3.05511,R,ugm-3,3.64955,R,ugm-3,0.25639,R,ugm-3
02-01-2023,02:00,,,,0.43076,R,ugm-3,4.71779,R,ugm-3,5.37829,R,ugm-3,0.34185,R,ugm-3
02-01-2023,03:00,,,,0.29076,R,ugm-3,4.30819,R,ugm-3,4.75402,R,ugm-3,0.25639,R,ugm-3
02-01-2023,04:00,,,,0.41999,R,ugm-3,5.02243,R,ugm-3,5.66641,R,ugm-3,0.06410,R,ugm-3
02-01-2023,05:00,,,,0.51692,R,ugm-3,6.21839,R,ugm-3,7.01098,R,ugm-3,0.19229,R,ugm-3
02-01-2023,06:00,,,,2.81073,R,ugm-3,17.20342,R,ugm-3,21.51314,R,ugm-3,0.32048,R,ugm-3
02-01-2023,07:00,,,,1.74459,R,ugm-3,13.65194,R,ugm-3,16.32694,R,ugm-3,0.25639,R,ugm-3
02-01-2023,08:00,,,,1.03383,R,ugm-3,12.38875,R,ugm-3,13.97394,R,ugm-3,0.06410,R,ugm-3
02-01-2023,09:00,,,,4.42609,R,ugm-3,13.91022,R,ugm-3,20.69679,R,ugm-3,0.12819,R,ugm-3
02-01-2023,10:00,,,,4.74916,R,ugm-3,25.51599,R,ugm-3,32.79793,R,ugm-3,0.32048,R,ugm-3
02-01-2023,11:00,,,,2.58458,R,ugm-3,12.84418,R,ugm-3,16.80714,R,ugm-3,0.32048,R,ugm-3
02-01-2023,12:00,,,,4.10302,R,ugm-3,14.35757,R,ugm-3,20.64877,R,ugm-3,0.51277,R,ugm-3
02-01-2023,13:00,,,,2.29381,R,ugm-3,10.55285,R,ugm-3,14.06998,R,ugm-3,0.38458,R,ugm-3
02-01-2023,14:00,,,,2.35843,R,ugm-3,12.95084,R,ugm-3,16.56704,R,ugm-3,0.38458,R,ugm-3
02-01-2023,15:00,,,,2.26151,R,ugm-3,16.26879,R,ugm-3,19.73638,R,ugm-3,0.64096,R,ugm-3
02-01-2023,16:00,,,,3.00457,R,ugm-3,23.58103,R,ugm-3,28.18798,R,ugm-3,0.57687,R,ugm-3
02-01-2023,17:00,,,,3.13380,R,ugm-3,33.61123,R,ugm-3,38.41632,R,ugm-3,0.51277,R,ugm-3
02-01-2023,18:00,,,,5.16915,R,ugm-3,42.59154,R,ugm-3,50.51746,R,ugm-3,0.89735,R,ugm-3
02-01-2023,19:00,,,,5.75068,R,ugm-3,39.44291,R,ugm-3,48.26050,R,ugm-3,1.21783,R,ugm-3
02-01-2023,20:00,,,,3.87686,R,ugm-3,34.34468,R,ugm-3,40.28912,R,ugm-3,1.34602,R,ugm-3
02-01-2023,21:00,,,,3.19841,R,ugm-3,28.56605,R,ugm-3,33.47022,R,ugm-3,1.15373,R,ugm-3
02-01-2023,22:00,,,,2.74611,R,ugm-3,27.00261,R,ugm-3,31.21326,R,ugm-3,1.02554,R,ugm-3
02-01-2023,23:00,,,,1.67998,R,ugm-3,24.17144,R,ugm-3,26.74736,R,ugm-3,0.76915,R,ugm-3
02-01-2023,24:00,,,,1.16306,R,ugm-3,24.77195,R,ugm-3,26.55528,R,ugm-3,0.51277,R,ugm-3
03-01-2023,01:00,,,,0.81860,R,ugm-3,25.47088,R,ugm-3,26.72604,R,ugm-3,0.34141,R,ugm-3
03-01-2023,02:00,,,,0.81860,R,ugm-3,21.17676,R,ugm-3,22.43193,R,ugm-3,0.42676,R,ugm-3
03-01-2023,03:00,,,,0.84014,R,ugm-3,14.47825,R,ugm-3,15.76644,R,ugm-3,0.32007,R,ugm-3
03-01-2023,04:00,,,,1.35715,R,ugm-3,16.18507,R,ugm-3,18.26600,R,ugm-3,0.25606,R,ugm-3
03-01-2023,05:00,,,,1.06633,R,ugm-3,12.68937,R,ugm-3,14.32439,R,ugm-3,0.25606,R,ugm-3
03-01-2023,06:00,,,,3.13436,R,ugm-3,21.34326,R,ugm-3,26.14922,R,ugm-3,0.25606,R,ugm-3
03-01-2023,07:00,,,,3.26361,R,ugm-3,34.31583,R,ugm-3,39.31997,R,ugm-3,0.32007,R,ugm-3
03-01-2023,08:00,,,,3.94219,R,ugm-3,37.26504,R,ugm-3,43.30964,R,ugm-3,0.51211,R,ugm-3
03-01-2023,09:00,,,,15.34868,R,ugm-3,49.33740,R,ugm-3,72.87172,R,ugm-3,0.70415,R,ugm-3
03-01-2023,10:00,,,,9.30615,R,ugm-3,42.64378,R,ugm-3,56.91301,R,ugm-3,0.57612,R,ugm-3
03-01-2023,11:00,,,,4.26532,R,ugm-3,27.78079,R,ugm-3,34.32085,R,ugm-3,0.38408,R,ugm-3
03-01-2023,12:00,,,,2.74661,R,ugm-3,17.37132,R,ugm-3,21.58272,R,ugm-3,0.32007,R,ugm-3
03-01-2023,13:00,,,,2.06803,R,ugm-3,11.15345,R,ugm-3,14.32439,R,ugm-3,0.25606,R,ugm-3
03-01-2023,14:00,,,,2.00341,R,ugm-3,9.32980,R,ugm-3,12.40165,R,ugm-3,0.25606,R,ugm-3
03-01-2023,15:00,,,,2.10035,R,ugm-3,10.47901,R,ugm-3,13.69950,R,ugm-3,0.25606,R,ugm-3
03-01-2023,16:00,,,,6.20410,R,ugm-3,25.24065,R,ugm-3,34.75346,R,ugm-3,0.38408,R,ugm-3
03-01-2023,17:00,,,,1.55103,R,ugm-3,10.69640,R,ugm-3,13.07461,R,ugm-3,0.25606,R,ugm-3
03-01-2023,18:00,,,,1.32483,R,ugm-3,8.25526,R,ugm-3,10.28664,R,ugm-3,0.06401,R,ugm-3
03-01-2023,19:00,,,,0.90476,R,ugm-3,8.17833,R,ugm-3,9.56562,R,ugm-3,0.12803,R,ugm-3
03-01-2023,20:00,,,,0.93708,R,ugm-3,8.32106,R,ugm-3,9.75789,R,ugm-3,0.19204,R,ugm-3
03-01-2023,21:00,,,,0.51701,R,ugm-3,6.51367,R,ugm-3,7.30640,R,ugm-3,0.19204,R,ugm-3
03-01-2023,22:00,,,,0.80783,R,ugm-3,6.59650,R,ugm-3,7.83515,R,ugm-3,0.25606,R,ugm-3
03-01-2023,23:00,,,,0.54932,R,ugm-3,4.20490,R,ugm-3,5.04718,R,ugm-3,0.25606,R,ugm-3
03-01-2023,24:00,,,,0.29082,R,ugm-3,2.91888,R,ugm-3,3.36479,R,ugm-3,0.25606,R,ugm-3
04-01-2023,01:00,,,,0.38783,R,ugm-3,2.22817,R,ugm-3,2.82283,R,ugm-3,0.25573,R,ugm-3
04-01-2023,02:00,,,,0.34473,R,ugm-3,1.26776,R,ugm-3,1.79635,R,ugm-3,0.34097,R,ugm-3
04-01-2023,03:00,,,,0.35551,R,ugm-3,0.89839,R,ugm-3,1.44349,R,ugm-3,0.25573,R,ugm-3
04-01-2023,04:00,,,,0.42014,R,ugm-3,1.18421,R,ugm-3,1.82843,R,ugm-3,0.25573,R,ugm-3
04-01-2023,05:00,,,,0.25855,R,ugm-3,1.62445,R,ugm-3,2.02089,R,ugm-3,0.12786,R,ugm-3
04-01-2023,06:00,,,,0.96957,R,ugm-3,3.13253,R,ugm-3,4.61918,R,ugm-3,0.25573,R,ugm-3
04-01-2023,07:00,,,,0.96957,R,ugm-3,4.04675,R,ugm-3,5.53339,R,ugm-3,0.25573,R,ugm-3
04-01-2023,08:00,,,,1.19580,R,ugm-3,5.28770,R,ugm-3,7.12123,R,ugm-3,0.19179,R,ugm-3
04-01-2023,09:00,,,,1.87449,R,ugm-3,7.80767,R,ugm-3,10.68185,R,ugm-3,0.19179,R,ugm-3
04-01-2023,10:00,,,,1.35739,R,ugm-3,7.78257,R,ugm-3,9.86387,R,ugm-3,0.00000,R,ugm-3
04-01-2023,11:00,,,,,,,,,,,,,,,
04-01-2023,12:00,,,,3.61971,R,ugm-3,7.68188,R,ugm-3,13.23202,R,ugm-3,0.85241,R,ugm-3
04-01-2023,13:00,,,,3.07029,R,ugm-3,4.67500,R,ugm-3,9.38270,R,ugm-3,0.70324,R,ugm-3
04-01-2023,14:00,,,,1.77754,R,ugm-3,5.02123,R,ugm-3,7.74675,R,ugm-3,0.51145,R,ugm-3
04-01-2023,15:00,,,,1.97145,R,ugm-3,8.42887,R,ugm-3,11.45171,R,ugm-3,0.51145,R,ugm-3
04-01-2023,16:00,,,,2.03609,R,ugm-3,9.53267,R,ugm-3,12.65462,R,ugm-3,0.51145,R,ugm-3
04-01-2023,17:00,,,,2.19768,R,ugm-3,10.92085,R,ugm-3,14.29058,R,ugm-3,0.51145,R,ugm-3
04-01-2023,18:00,,,,1.84217,R,ugm-3,9.63753,R,ugm-3,12.46216,R,ugm-3,0.51145,R,ugm-3
04-01-2023,19:00,,,,1.22812,R,ugm-3,9.71298,R,ugm-3,11.59606,R,ugm-3,0.51145,R,ugm-3
04-01-2023,20:00,,,,1.51898,R,ugm-3,8.97829,R,ugm-3,11.30736,R,ugm-3,0.51145,R,ugm-3
04-01-2023,21:00,,,,1.09884,R,ugm-3,8.94887,R,ugm-3,10.63373,R,ugm-3,0.51145,R,ugm-3
04-01-2023,22:00,,,,1.00188,R,ugm-3,8.42390,R,ugm-3,9.96010,R,ugm-3,0.51145,R,ugm-3
04-01-2023,23:00,,,,0.74333,R,ugm-3,6.12582,R,ugm-3,7.26558,R,ugm-3,0.51145,R,ugm-3
04-01-2023,24:00,,,,0.58174,R,ugm-3,4.93010,R,ugm-3,5.82209,R,ugm-3,0.38359,R,ugm-3
05-01-2023,01:00,,,,0.38802,R,ugm-3,3.51342,R,ugm-3,4.10837,R,ugm-3,0.25525,R,ugm-3
05-01-2023,02:00,,,,0.47425,R,ugm-3,3.38120,R,ugm-3,4.10837,R,ugm-3,0.34034,R,ugm-3
05-01-2023,03:00,,,,0.45269,R,ugm-3,1.80942,R,ugm-3,2.50354,R,ugm-3,0.31907,R,ugm-3
05-01-2023,04:00,,,,0.51736,R,ugm-3,2.72131,R,ugm-3,3.51458,R,ugm-3,0.31907,R,ugm-3
05-01-2023,05:00,,,,0.38802,R,ugm-3,4.21954,R,ugm-3,4.81450,R,ugm-3,0.25525,R,ugm-3
05-01-2023,06:00,,,,1.32574,R,ugm-3,6.92220,R,ugm-3,8.95497,R,ugm-3,0.25525,R,ugm-3
05-01-2023,07:00,,,,2.23113,R,ugm-3,11.16692,R,ugm-3,14.58793,R,ugm-3,0.25525,R,ugm-3
05-01-2023,08:00,,,,2.68382,R,ugm-3,13.45780,R,ugm-3,17.57292,R,ugm-3,0.31907,R,ugm-3
05-01-2023,09:00,,,,5.65865,R,ugm-3,21.55858,R,ugm-3,30.23506,R,ugm-3,0.31907,R,ugm-3
05-01-2023,10:00,,,,4.26824,R,ugm-3,19.02045,R,ugm-3,25.56499,R,ugm-3,0.31907,R,ugm-3
05-01-2023,11:00,,,,4.10656,R,ugm-3,18.30545,R,ugm-3,24.60209,R,ugm-3,0.25525,R,ugm-3
05-01-2023,12:00,,,,4.23590,R,ugm-3,20.08108,R,ugm-3,26.57604,R,ugm-3,0.25525,R,ugm-3
05-01-2023,13:00,,,,2.87783,R,ugm-3,16.09716,R,ugm-3,20.50977,R,ugm-3,0.19144,R,ugm-3
05-01-2023,14:00,,,,2.32813,R,ugm-3,14.14761,R,ugm-3,17.71736,R,ugm-3,0.19144,R,ugm-3
05-01-2023,15:00,,,,1.87544,R,ugm-3,13.30109,R,ugm-3,16.17672,R,ugm-3,0.19144,R,ugm-3
05-01-2023,16:00,,,,2.06945,R,ugm-3,16.61448,R,ugm-3,19.78759,R,ugm-3,0.25525,R,ugm-3
05-01-2023,17:00,,,,2.06945,R,ugm-3,17.28851,R,ugm-3,20.46162,R,ugm-3,0.19144,R,ugm-3
05-01-2023,18:00,,,,1.58442,R,ugm-3,14.75835,R,ugm-3,17.18776,R,ugm-3,0.06381,R,ugm-3
05-01-2023,19:00,,,,1.42275,R,ugm-3,13.99521,R,ugm-3,16.17672,R,ugm-3,0.12763,R,ugm-3
05-01-2023,20:00,,,,1.13173,R,ugm-3,10.15652,R,ugm-3,11.89181,R,ugm-3,0.19144,R,ugm-3
05-01-2023,21:00,,,,0.74371,R,ugm-3,7.47762,R,ugm-3,8.61796,R,ugm-3,0.19144,R,ugm-3
05-01-2023,22:00,,,,0.90538,R,ugm-3,4.67803,R,ugm-3,6.06627,R,ugm-3,0.25525,R,ugm-3
05-01-2023,23:00,,,,0.58203,R,ugm-3,4.06650,R,ugm-3,4.95894,R,ugm-3,0.12763,R,ugm-3
05-01-2023,24:00,,,,0.48503,R,ugm-3,2.77089,R,ugm-3,3.51458,R,ugm-3,0.25525,R,ugm-3
06-01-2023,01:00,,,,0.43135,R,ugm-3,1.71516,R,ugm-3,2.37656,R,ugm-3,0.50956,R,ugm-3
06-01-2023,02:00,,,,0.43135,R,ugm-3,2.29325,R,ugm-3,2.95465,R,ugm-3,0.08493,R,ugm-3
06-01-2023,03:00,,,,0.42057,R,ugm-3,2.19738,R,ugm-3,2.84224,R,ugm-3,0.44586,R,ugm-3
06-01-2023,04:00,,,,0.58233,R,ugm-3,2.14205,R,ugm-3,3.03494,R,ugm-3,0.50956,R,ugm-3
06-01-2023,05:00,,,,0.67938,R,ugm-3,1.75236,R,ugm-3,2.79407,R,ugm-3,0.50956,R,ugm-3
06-01-2023,06:00,,,,1.26171,R,ugm-3,5.00240,R,ugm-3,6.93699,R,ugm-3,0.38217,R,ugm-3
06-01-2023,07:00,,,,4.20569,R,ugm-3,18.26440,R,ugm-3,24.71304,R,ugm-3,0.50956,R,ugm-3
06-01-2023,08:00,,,,2.26460,R,ugm-3,12.71398,R,ugm-3,16.18632,R,ugm-3,0.38217,R,ugm-3
06-01-2023,09:00,,,,2.55577,R,ugm-3,15.83238,R,ugm-3,19.75116,R,ugm-3,0.50956,R,ugm-3
06-01-2023,10:00,,,,2.74988,R,ugm-3,16.06466,R,ugm-3,20.28107,R,ugm-3,0.50956,R,ugm-3
06-01-2023,11:00,,,,2.52341,R,ugm-3,13.81052,R,ugm-3,17.67970,R,ugm-3,0.38217,R,ugm-3
06-01-2023,12:00,,,,2.55577,R,ugm-3,13.08648,R,ugm-3,17.00527,R,ugm-3,0.31848,R,ugm-3
06-01-2023,13:00,,,,2.55577,R,ugm-3,16.12142,R,ugm-3,20.04020,R,ugm-3,0.50956,R,ugm-3
06-01-2023,14:00,,,,3.23515,R,ugm-3,27.99023,R,ugm-3,32.95072,R,ugm-3,0.50956,R,ugm-3
06-01-2023,15:00,,,,3.13809,R,ugm-3,17.20365,R,ugm-3,22.01532,R,ugm-3,0.50956,R,ugm-3
06-01-2023,16:00,,,,2.94398,R,ugm-3,19.23552,R,ugm-3,23.74957,R,ugm-3,0.50956,R,ugm-3
06-01-2023,17:00,,,,1.84403,R,ugm-3,15.18944,R,ugm-3,18.01691,R,ugm-3,0.50956,R,ugm-3
06-01-2023,18:00,,,,1.48817,R,ugm-3,13.08554,R,ugm-3,15.36737,R,ugm-3,0.38217,R,ugm-3
06-01-2023,19:00,,,,1.52052,R,ugm-3,11.30169,R,ugm-3,13.63312,R,ugm-3,0.44586,R,ugm-3
06-01-2023,20:00,,,,1.06760,R,ugm-3,13.05598,R,ugm-3,14.69294,R,ugm-3,0.50956,R,ugm-3
06-01-2023,21:00,,,,0.77644,R,ugm-3,10.03392,R,ugm-3,11.22444,R,ugm-3,0.44586,R,ugm-3
06-01-2023,22:00,,,,0.48527,R,ugm-3,7.97534,R,ugm-3,8.71942,R,ugm-3,0.50956,R,ugm-3
06-01-2023,23:00,,,,0.54997,R,ugm-3,5.94919,R,ugm-3,6.79247,R,ugm-3,0.44586,R,ugm-3
06-01-2023,24:00,,,,0.51762,R,ugm-3,2.72299,R,ugm-3,3.51667,R,ugm-3,0.50956,R,ugm-3
07-01-2023,01:00,,,,0.38841,R,ugm-3,1.71814,R,ugm-3,2.31370,R,ugm-3,0.25431,R,ugm-3
07-01-2023,02:00,,,,0.38841,R,ugm-3,1.39680,R,ugm-3,1.99236,R,ugm-3,0.33908,R,ugm-3
07-01-2023,03:00,,,,0.29131,R,ugm-3,1.04760,R,ugm-3,1.49427,R,ugm-3,0.19073,R,ugm-3
07-01-2023,04:00,,,,0.35605,R,ugm-3,0.90014,R,ugm-3,1.44606,R,ugm-3,0.25431,R,ugm-3
07-01-2023,05:00,,,,0.38841,R,ugm-3,0.89871,R,ugm-3,1.49427,R,ugm-3,0.25431,R,ugm-3
07-01-2023,06:00,,,,0.74446,R,ugm-3,1.65424,R,ugm-3,2.79572,R,ugm-3,0.25431,R,ugm-3
07-01-2023,07:00,,,,0.77683,R,ugm-3,2.18303,R,ugm-3,3.37415,R,ugm-3,0.25431,R,ugm-3
07-01-2023,08:00,,,,0.67972,R,ugm-3,2.95855,R,ugm-3,4.00078,R,ugm-3,0.38146,R,ugm-3
07-01-2023,09:00,,,,0.84156,R,ugm-3,4.97590,R,ugm-3,6.26628,R,ugm-3,0.44504,R,ugm-3
07-01-2023,10:00,,,,1.29471,R,ugm-3,8.52287,R,ugm-3,10.50807,R,ugm-3,0.38146,R,ugm-3
07-01-2023,11:00,,,,1.29471,R,ugm-3,8.08905,R,ugm-3,10.07425,R,ugm-3,0.31788,R,ugm-3
07-01-2023,12:00,,,,1.26234,R,ugm-3,5.43936,R,ugm-3,7.37493,R,ugm-3,0.38146,R,ugm-3
07-01-2023,13:00,,,,1.45655,R,ugm-3,5.81641,R,ugm-3,8.04976,R,ugm-3,0.50861,R,ugm-3
07-01-2023,14:00,,,,1.42418,R,ugm-3,4.99840,R,ugm-3,7.18212,R,ugm-3,0.31788,R,ugm-3
07-01-2023,15:00,,,,1.35945,R,ugm-3,5.67609,R,ugm-3,7.76054,R,ugm-3,0.50861,R,ugm-3
07-01-2023,16:00,,,,1.42418,R,ugm-3,6.15525,R,ugm-3,8.33897,R,ugm-3,0.44504,R,ugm-3
07-01-2023,17:00,,,,1.10051,R,ugm-3,6.50695,R,ugm-3,8.19436,R,ugm-3,0.50861,R,ugm-3
07-01-2023,18:00,,,,1.00340,R,ugm-3,8.00549,R,ugm-3,9.54402,R,ugm-3,0.50861,R,ugm-3
07-01-2023,19:00,,,,1.52129,R,ugm-3,6.63299,R,ugm-3,8.96560,R,ugm-3,0.50861,R,ugm-3
07-01-2023,20:00,,,,0.97103,R,ugm-3,6.27165,R,ugm-3,7.76054,R,ugm-3,0.50861,R,ugm-3
07-01-2023,21:00,,,,0.74446,R,ugm-3,5.31760,R,ugm-3,6.45909,R,ugm-3,0.44504,R,ugm-3
07-01-2023,22:00,,,,0.84156,R,ugm-3,4.78309,R,ugm-3,6.07347,R,ugm-3,0.50861,R,ugm-3
07-01-2023,23:00,,,,0.61499,R,ugm-3,4.55208,R,ugm-3,5.49504,R,ugm-3,0.50861,R,ugm-3
07-01-2023,24:00,,,,0.35605,R,ugm-3,3.45485,R,ugm-3,4.00078,R,ugm-3,0.50861,R,ugm-3
08-01-2023,01:00,,,,0.25907,R,ugm-3,3.01106,R,ugm-3,3.40830,R,ugm-3,0.25383,R,ugm-3
08-01-2023,02:00,,,,0.47497,R,ugm-3,2.35849,R,ugm-3,3.08677,R,ugm-3,0.33845,R,ugm-3
08-01-2023,03:00,,,,0.35623,R,ugm-3,2.15471,R,ugm-3,2.70092,R,ugm-3,0.25383,R,ugm-3
08-01-2023,04:00,,,,0.38861,R,ugm-3,1.71922,R,ugm-3,2.31507,R,ugm-3,0.19038,R,ugm-3
08-01-2023,05:00,,,,0.48576,R,ugm-3,2.48663,R,ugm-3,3.23146,R,ugm-3,0.25383,R,ugm-3
08-01-2023,06:00,,,,0.68007,R,ugm-3,3.49093,R,ugm-3,4.53369,R,ugm-3,0.25383,R,ugm-3
08-01-2023,07:00,,,,0.77722,R,ugm-3,3.92074,R,ugm-3,5.11245,R,ugm-3,0.25383,R,ugm-3
08-01-2023,08:00,,,,0.38861,R,ugm-3,4.32367,R,ugm-3,4.91953,R,ugm-3,0.19038,R,ugm-3
08-01-2023,09:00,,,,0.48576,R,ugm-3,4.03001,R,ugm-3,4.77484,R,ugm-3,0.25383,R,ugm-3
08-01-2023,10:00,,,,0.90676,R,ugm-3,5.31373,R,ugm-3,6.70407,R,ugm-3,0.25383,R,ugm-3
08-01-2023,11:00,,,,1.32775,R,ugm-3,4.61998,R,ugm-3,6.65584,R,ugm-3,0.25383,R,ugm-3
08-01-2023,12:00,,,,1.78113,R,ugm-3,4.35889,R,ugm-3,7.08991,R,ugm-3,0.25383,R,ugm-3
08-01-2023,13:00,,,,1.55444,R,ugm-3,4.85117,R,ugm-3,7.23461,R,ugm-3,0.31729,R,ugm-3
08-01-2023,14:00,,,,1.39252,R,ugm-3,6.01583,R,ugm-3,8.15099,R,ugm-3,0.25383,R,ugm-3
08-01-2023,15:00,,,,1.58682,R,ugm-3,7.06836,R,ugm-3,9.50145,R,ugm-3,0.25383,R,ugm-3
08-01-2023,16:00,,,,1.48967,R,ugm-3,8.90539,R,ugm-3,11.18952,R,ugm-3,0.25383,R,ugm-3
08-01-2023,17:00,,,,1.94305,R,ugm-3,17.18114,R,ugm-3,20.16043,R,ugm-3,0.25383,R,ugm-3
08-01-2023,18:00,,,,1.52205,R,ugm-3,18.21250,R,ugm-3,20.54628,R,ugm-3,0.25383,R,ugm-3
08-01-2023,19:00,,,,2.23450,R,ugm-3,14.03332,R,ugm-3,17.45951,R,ugm-3,0.44421,R,ugm-3
08-01-2023,20:00,,,,1.23060,R,ugm-3,13.98101,R,ugm-3,15.86790,R,ugm-3,0.38075,R,ugm-3
08-01-2023,21:00,,,,0.90676,R,ugm-3,11.72841,R,ugm-3,13.11875,R,ugm-3,0.31729,R,ugm-3
08-01-2023,22:00,,,,0.74483,R,ugm-3,11.10853,R,ugm-3,12.25060,R,ugm-3,0.31729,R,ugm-3
08-01-2023,23:00,,,,0.74483,R,ugm-3,9.80630,R,ugm-3,10.94837,R,ugm-3,0.44421,R,ugm-3
08-01-2023,24:00,,,,0.38861,R,ugm-3,8.32682,R,ugm-3,8.92268,R,ugm-3,0.44421,R,ugm-3
09-01-2023,01:00,,,,0.25920,R,ugm-3,7.64577,R,ugm-3,8.04321,R,ugm-3,0.42227,R,ugm-3
09-01-2023,02:00,,,,0.17280,R,ugm-3,7.07045,R,ugm-3,7.33541,R,ugm-3,0.50672,R,ugm-3
09-01-2023,03:00,,,,0.42121,R,ugm-3,6.40001,R,ugm-3,7.04585,R,ugm-3,0.31670,R,ugm-3
09-01-2023,04:00,,,,0.48601,R,ugm-3,6.34891,R,ugm-3,7.09411,R,ugm-3,0.25336,R,ugm-3
09-01-2023,05:00,,,,0.45361,R,ugm-3,5.57819,R,ugm-3,6.27370,R,ugm-3,0.25336,R,ugm-3
09-01-2023,06:00,,,,1.81442,R,ugm-3,8.51059,R,ugm-3,11.29267,R,ugm-3,0.38004,R,ugm-3
09-01-2023,07:00,,,,2.81884,R,ugm-3,13.00292,R,ugm-3,17.32508,R,ugm-3,0.25336,R,ugm-3
09-01-2023,08:00,,,,4.14726,R,ugm-3,18.88056,R,ugm-3,25.23959,R,ugm-3,0.38004,R,ugm-3
09-01-2023,09:00,,,,4.21206,R,ugm-3,23.51061,R,ugm-3,29.96900,R,ugm-3,0.44338,R,ugm-3
09-01-2023,10:00,,,,5.02207,R,ugm-3,20.96561,R,ugm-3,28.66600,R,ugm-3,0.44338,R,ugm-3
09-01-2023,11:00,,,,5.47567,R,ugm-3,19.83575,R,ugm-3,28.23167,R,ugm-3,0.44338,R,ugm-3
09-01-2023,12:00,,,,3.49925,R,ugm-3,15.48257,R,ugm-3,20.84800,R,ugm-3,0.50672,R,ugm-3
09-01-2023,13:00,,,,2.55963,R,ugm-3,11.51825,R,ugm-3,15.44296,R,ugm-3,0.25336,R,ugm-3
09-01-2023,14:00,,,,1.58762,R,ugm-3,10.20961,R,ugm-3,12.64393,R,ugm-3,0.25336,R,ugm-3
09-01-2023,15:00,,,,2.46243,R,ugm-3,12.58421,R,ugm-3,16.35989,R,ugm-3,0.25336,R,ugm-3
09-01-2023,16:00,,,,2.49483,R,ugm-3,14.51316,R,ugm-3,18.33852,R,ugm-3,0.25336,R,ugm-3
09-01-2023,17:00,,,,2.10603,R,ugm-3,17.61880,R,ugm-3,20.84800,R,ugm-3,0.25336,R,ugm-3
09-01-2023,18:00,,,,2.46243,R,ugm-3,18.47184,R,ugm-3,22.24752,R,ugm-3,0.25336,R,ugm-3
09-01-2023,19:00,,,,1.49042,R,ugm-3,13.73680,R,ugm-3,16.02207,R,ugm-3,0.25336,R,ugm-3
09-01-2023,20:00,,,,1.68482,R,ugm-3,11.12227,R,ugm-3,13.70563,R,ugm-3,0.25336,R,ugm-3
09-01-2023,21:00,,,,1.32842,R,ugm-3,9.88316,R,ugm-3,11.92004,R,ugm-3,0.25336,R,ugm-3
09-01-2023,22:00,,,,1.45802,R,ugm-3,11.95262,R,ugm-3,14.18822,R,ugm-3,0.31670,R,ugm-3
09-01-2023,23:00,,,,0.71281,R,ugm-3,7.40067,R,ugm-3,8.49363,R,ugm-3,0.25336,R,ugm-3
09-01-2023,24:00,,,,1.39322,R,ugm-3,13.11369,R,ugm-3,15.24993,R,ugm-3,0.31670,R,ugm-3
10-01-2023,01:00,,,,0.34578,R,ugm-3,8.80546,R,ugm-3,9.33565,R,ugm-3,0.25289,R,ugm-3
10-01-2023,02:00,,,,0.30256,R,ugm-3,5.07309,R,ugm-3,5.53701,R,ugm-3,0.25289,R,ugm-3
10-01-2023,03:00,,,,0.25933,R,ugm-3,4.67258,R,ugm-3,5.07022,R,ugm-3,0.25289,R,ugm-3
10-01-2023,04:00,,,,0.38900,R,ugm-3,4.52205,R,ugm-3,5.11851,R,ugm-3,0.25289,R,ugm-3
10-01-2023,05:00,,,,0.42142,R,ugm-3,4.18262,R,ugm-3,4.82878,R,ugm-3,0.18967,R,ugm-3
10-01-2023,06:00,,,,1.65325,R,ugm-3,7.07432,R,ugm-3,9.60928,R,ugm-3,0.18967,R,ugm-3
10-01-2023,07:00,,,,2.72301,R,ugm-3,14.65704,R,ugm-3,18.83225,R,ugm-3,0.18967,R,ugm-3
10-01-2023,08:00,,,,2.23676,R,ugm-3,12.07075,R,ugm-3,15.50039,R,ugm-3,0.18967,R,ugm-3
10-01-2023,09:00,,,,3.30651,R,ugm-3,15.30755,R,ugm-3,20.37746,R,ugm-3,0.12644,R,ugm-3
10-01-2023,10:00,,,,5.18668,R,ugm-3,29.27712,R,ugm-3,37.22992,R,ugm-3,0.18967,R,ugm-3
10-01-2023,11:00,,,,2.59334,R,ugm-3,25.33431,R,ugm-3,29.31071,R,ugm-3,0.18967,R,ugm-3
10-01-2023,12:00,,,,1.68567,R,ugm-3,13.10889,R,ugm-3,15.69354,R,ugm-3,0.12644,R,ugm-3
10-01-2023,13:00,,,,1.36150,R,ugm-3,9.79120,R,ugm-3,11.87881,R,ugm-3,0.18967,R,ugm-3
10-01-2023,14:00,,,,1.88017,R,ugm-3,10.10654,R,ugm-3,12.98943,R,ugm-3,0.18967,R,ugm-3
10-01-2023,15:00,,,,2.13951,R,ugm-3,13.52364,R,ugm-3,16.80416,R,ugm-3,0.18967,R,ugm-3
10-01-2023,16:00,,,,1.94501,R,ugm-3,11.55234,R,ugm-3,14.53464,R,ugm-3,0.18967,R,ugm-3
10-01-2023,17:00,,,,1.65325,R,ugm-3,11.56509,R,ugm-3,14.10005,R,ugm-3,0.25289,R,ugm-3
10-01-2023,18:00,,,,1.42634,R,ugm-3,9.93323,R,ugm-3,12.12025,R,ugm-3,0.25289,R,ugm-3
10-01-2023,19:00,,,,1.19942,R,ugm-3,8.20478,R,ugm-3,10.04387,R,ugm-3,0.25289,R,ugm-3
10-01-2023,20:00,,,,0.94009,R,ugm-3,7.34694,R,ugm-3,8.78839,R,ugm-3,0.25289,R,ugm-3
10-01-2023,21:00,,,,0.71317,R,ugm-3,5.71507,R,ugm-3,6.80858,R,ugm-3,0.25289,R,ugm-3
10-01-2023,22:00,,,,0.68075,R,ugm-3,5.86136,R,ugm-3,6.90516,R,ugm-3,0.06322,R,ugm-3
10-01-2023,23:00,,,,0.58350,R,ugm-3,4.51355,R,ugm-3,5.40824,R,ugm-3,0.06322,R,ugm-3
10-01-2023,24:00,,,,0.45384,R,ugm-3,3.11887,R,ugm-3,3.81474,R,ugm-3,0.25289,R,ugm-3
11-01-2023,01:00,,,,0.34595,R,ugm-3,3.01275,R,ugm-3,3.54320,R,ugm-3,0.25242,R,ugm-3
11-01-2023,02:00,,,,0.30271,R,ugm-3,2.56368,R,ugm-3,3.02783,R,ugm-3,0.25242,R,ugm-3
11-01-2023,03:00,,,,0.38920,R,ugm-3,2.35054,R,ugm-3,2.94730,R,ugm-3,0.25242,R,ugm-3
11-01-2023,04:00,,,,0.25947,R,ugm-3,2.16293,R,ugm-3,2.56077,R,ugm-3,0.25242,R,ugm-3
11-01-2023,05:00,,,,0.42163,R,ugm-3,2.15586,R,ugm-3,2.80235,R,ugm-3,0.31552,R,ugm-3
11-01-2023,06:00,,,,1.13516,R,ugm-3,7.19798,R,ugm-3,8.93853,R,ugm-3,0.25242,R,ugm-3
11-01-2023,07:00,,,,1.32976,R,ugm-3,8.49404,R,ugm-3,10.53297,R,ugm-3,0.25242,R,ugm-3
11-01-2023,08:00,,,,2.40005,R,ugm-3,12.26439,R,ugm-3,15.94441,R,ugm-3,0.18931,R,ugm-3
11-01-2023,09:00,,,,2.17302,R,ugm-3,14.30357,R,ugm-3,17.63548,R,ugm-3,0.25242,R,ugm-3
11-01-2023,10:00,,,,2.36761,R,ugm-3,11.34779,R,ugm-3,14.97808,R,ugm-3,0.25242,R,ugm-3
11-01-2023,11:00,,,,2.14058,R,ugm-3,9.13513,R,ugm-3,12.41731,R,ugm-3,0.25242,R,ugm-3
11-01-2023,12:00,,,,1.68652,R,ugm-3,6.64247,R,ugm-3,9.22843,R,ugm-3,0.25242,R,ugm-3
11-01-2023,13:00,,,,1.55679,R,ugm-3,6.84139,R,ugm-3,9.22843,R,ugm-3,0.25242,R,ugm-3
11-01-2023,14:00,,,,1.49192,R,ugm-3,6.16779,R,ugm-3,8.45537,R,ugm-3,0.12621,R,ugm-3
11-01-2023,15:00,,,,1.29732,R,ugm-3,6.41785,R,ugm-3,8.40705,R,ugm-3,0.06310,R,ugm-3
11-01-2023,16:00,,,,2.01085,R,ugm-3,7.93288,R,ugm-3,11.01614,R,ugm-3,0.18931,R,ugm-3
11-01-2023,17:00,,,,1.78382,R,ugm-3,9.24731,R,ugm-3,11.98247,R,ugm-3,0.25242,R,ugm-3
11-01-2023,18:00,,,,1.88112,R,ugm-3,11.85216,R,ugm-3,14.73650,R,ugm-3,0.25242,R,ugm-3
11-01-2023,19:00,,,,1.13516,R,ugm-3,9.27559,R,ugm-3,11.01614,R,ugm-3,0.37863,R,ugm-3
11-01-2023,20:00,,,,0.90813,R,ugm-3,8.80232,R,ugm-3,10.19476,R,ugm-3,0.50483,R,ugm-3
11-01-2023,21:00,,,,0.55136,R,ugm-3,7.75491,R,ugm-3,8.60032,R,ugm-3,1.13587,R,ugm-3
11-01-2023,22:00,,,,1.23246,R,ugm-3,8.44997,R,ugm-3,10.33971,R,ugm-3,0.75725,R,ugm-3
11-01-2023,23:00,,,,0.77839,R,ugm-3,4.94266,R,ugm-3,6.13618,R,ugm-3,0.44173,R,ugm-3
11-01-2023,24:00,,,,0.55136,R,ugm-3,5.33909,R,ugm-3,6.18450,R,ugm-3,0.25242,R,ugm-3
12-01-2023,01:00,,,,0.47593,R,ugm-3,5.39395,R,ugm-3,6.12370,R,ugm-3,,,
12-01-2023,02:00,,,,0.43266,R,ugm-3,1.91500,R,ugm-3,2.57840,R,ugm-3,0.33593,R,ugm-3
12-01-2023,03:00,,,,0.12980,R,ugm-3,1.34802,R,ugm-3,1.54704,R,ugm-3,0.25195,R,ugm-3
12-01-2023,04:00,,,,0.22715,R,ugm-3,1.39213,R,ugm-3,1.74042,R,ugm-3,0.25195,R,ugm-3
12-01-2023,05:00,,,,0.22715,R,ugm-3,1.58551,R,ugm-3,1.93380,R,ugm-3,0.25195,R,ugm-3
12-01-2023,06:00,,,,0.74634,R,ugm-3,4.07689,R,ugm-3,5.22126,R,ugm-3,0.18896,R,ugm-3
12-01-2023,07:00,,,,2.04431,R,ugm-3,10.64375,R,ugm-3,13.77831,R,ugm-3,0.25195,R,ugm-3
12-01-2023,08:00,,,,5.58130,R,ugm-3,26.73395,R,ugm-3,35.29182,R,ugm-3,0.25195,R,ugm-3
12-01-2023,09:00,,,,4.73761,R,ugm-3,34.84422,R,ugm-3,42.10846,R,ugm-3,0.25195,R,ugm-3
12-01-2023,10:00,,,,5.45150,R,ugm-3,32.58934,R,ugm-3,40.94818,R,ugm-3,0.37792,R,ugm-3
12-01-2023,11:00,,,,2.17411,R,ugm-3,16.19778,R,ugm-3,19.53136,R,ugm-3,0.25195,R,ugm-3
12-01-2023,12:00,,,,2.33636,R,ugm-3,12.99996,R,ugm-3,16.58232,R,ugm-3,0.25195,R,ugm-3
12-01-2023,13:00,,,,1.81717,R,ugm-3,10.70196,R,ugm-3,13.48824,R,ugm-3,0.25195,R,ugm-3
12-01-2023,14:00,,,,1.71982,R,ugm-3,6.59687,R,ugm-3,9.23389,R,ugm-3,0.25195,R,ugm-3
12-01-2023,15:00,,,,1.26553,R,ugm-3,6.85834,R,ugm-3,8.79878,R,ugm-3,0.44090,R,ugm-3